Location: Dover
(48.8500°N, 53.9833°W)
Time: 17:37:17
(UTC+00:00)

Cosmos 1140 Rocket - Pass Details

Date: 14 November 2025
Orbit: 740 x 761 km, 74.1° (Epoch: 10 December)

Event Time Altitude Azimuth Distance (km) Brightness Sun altitude
Rises 21:17:58 0° 199° (SSW) 3,199 7.2 -13.4°
Reaches altitude 10° 21:20:20 10° 199° (SSW) 2,276 6.4 -13.8°
Maximum altitude 21:25:30 85° 112° (ESE) 761 3.4 -14.6°
Drops below altitude 10° 21:30:40 10° 24° (NNE) 2,278 5.6 -15.4°
Enters shadow 21:31:22 - 24° (NNE) 2,549 5.9 -15.6°
